Weather observations for the past three days for
Sparrevohn Airways Facilities Sector
Metric (Imperial)
Date Time (akdt) Wind (kph) Vis. (km) Weather Sky Cond. Temperature (ºC) Relative Humidity Wind Chill (°C) Heat Index (°C) Pressure Precipitation (cm)
Air Dwpt 6 hour altimeter (cm) sea level (mb) 1 hr 3 hr 6 hr
Max. Min.
18 20:55 SW 19 16.09 Overcast OVC085 11.3 0.1 46% 76.07 1014.0
18 19:56 Vrbl 11 16.09 Overcast OVC085 11 -0.9 44% 76.07 1014.3
18 18:55 SW 24 G 31 16.09 Overcast OVC090 11.5 -1.6 40% 76.07 1014.2
18 17:55 SW 24 G 31 16.09 Mostly Cloudy SCT100 BKN130 13.1 0.7 43% 76.05 1013.8
18 16:55 SW 19 16.09 Thunderstorm in Vicinity SCT110 14.6 1.5 41% 76.02 1013.4
18 15:55 S 20 16.09 A Few Clouds FEW150 FEW190 16.5 0 16.7 11.4 33% 76.02 1013.2
18 14:55 S 19 16.09 A Few Clouds FEW140 15.9 -0.1 34% 76.05 1013.2
18 13:55 Vrbl 11 16.09 Mostly Cloudy BKN140 14.8 -0.7 35% 76.07 1013.7
18 12:55 SW 17 16.09 Mostly Cloudy BKN140 15.1 -0.4 35% 76.07 1013.6
18 11:56 Vrbl 9 16.09 Partly Cloudy SCT140 14 1 41% 76.1 1013.8
18 10:55 Vrbl 11 16.09 Mostly Cloudy SCT150 BKN170 13 2 47% 76.1 1013.9
18 09:56 Vrbl 7 16.09 Mostly Cloudy SCT BKN 12 3 54% 76.1 1013.9
18 08:55 SE 6 16.09 Partly Cloudy SCT220 10 4 67% 76.12 1014.1
18 07:54 Vrbl 9 16.09 Fair CLR 9 4 71% 8 76.1 1014.1
18 06:55 Calm 16.09 Fair CLR 8 5 82% 76.1 1013.9
18 05:55 W 2 16.09 A Few Clouds FEW220 8.9 4.4 74% 76.1 1014.2
18 04:55 NW 2 16.09 Mostly Cloudy BKN180 9.1 5.2 77% 76.1 1014.2
18 03:55 W 4 16.09 Mostly Cloudy BKN180 9.6 5.6 17.2 9.4 76% 76.12 1014.1
18 02:55 Calm 16.09 Fair CLR 11.1 5.7 70% 76.12 1013.8
18 01:55 S 2 16.09 A Few Clouds FEW085 11 6 72% 76.12 1014.2
18 00:55 Vrbl 9 16.09 Partly Cloudy SCT085 12.8 6.7 67% 76.12 1014.0
17 23:55 SW 7 16.09 Mostly Cloudy BKN085 13.7 7.1 65% 76.1 1013.6
17 22:55 SW 11 16.09 Thunderstorm in Vicinity CLR 15.6 6.9 56% 76.07 1013.2
17 21:55 Vrbl 9 16.09 Partly Cloudy SCT055 17 8.1 19.7 15 56% 76.05 1012.8 0.08
17 20:55 Vrbl 7 16.09 Fair CLR 17.4 8.3 55% 76.05 1012.8
17 19:55 Vrbl 9 16.09 A Few Clouds FEW250 17.7 7.8 53% 76.05 1012.9
17 18:55 SW 9 16.09 Thunderstorm in Vicinity FEW070 18 8.3 53% 76.05 1013.0 0.03 0.08
17 17:55 W 13 16.09 Light Showers Rain Thunderstorm in Vicinity FEW060 BKN070 15.2 7.6 61% 76.1 1013.8
17 16:55 Vrbl 11 16.09 Thunderstorm Light Rain BKN055 BKN170 17 9.5 62% 76.07 1013.6 0.05
17 15:55 W 13 16.09 Thunderstorm in Vicinity SCT060 SCT110 19.4 6.4 20.9 15 43% 76.07 1013.2
17 14:55 S 6 16.09 A Few Clouds FEW080 20.3 5.6 38% 76.1 1013.3
17 13:55 Vrbl 6 16.09 A Few Clouds FEW055 FEW070 19 7.7 48% 76.17 1014.4
17 12:55 S 15 16.09 Fair CLR 19.5 8.4 49% 76.2 1014.5
17 11:55 Vrbl 7 16.09 Fair CLR 17.3 8.6 57% 76.23 1014.9
17 10:55 Vrbl 9 16.09 Fair CLR 17 9.5 62% 76.25 1015.2
17 09:55 Vrbl 7 16.09 Mostly Cloudy BKN075 15.1 8.7 15.1 11.7 66% 76.25 1015.3
17 08:55 W 6 16.09 Fair CLR 14.6 8.5 67% 76.25 1015.1
17 07:55 Calm 16.09 Fair CLR 13.6 8.6 72% 76.23 1015.1
17 06:55 Calm 16.09 Fair CLR 12.7 7.5 71% 76.2 1015.1
17 04:55 Calm 16.09 Fair CLR 12.5 6.6 68% 76.23 1015.9
17 03:55 Calm 16.09 Fair CLR 13.3 6.3 19.1 12.8 63% 76.25 1015.6
17 02:55 Calm 16.09 Thunderstorm in Vicinity CLR 13.9 5.8 58% 76.28 1015.6
17 01:55 Calm 16.09 Fair CLR 15 5.7 54% 76.3 1015.7
17 00:55 Calm 16.09 Fair CLR 15.8 5.8 52% 76.3 1015.7
16 23:55 Calm 16.09 Fair CLR 16.9 6.7 51% 76.3 1015.7
16 22:55 NW 4 16.09 Fair CLR 17.2 6.6 50% 76.3 1016.0
16 21:55 N 6 16.09 Fair CLR 19 6.4 19.9 13 44% 76.28 1015.6 0.13
16 20:55 Calm 16.09 Fair CLR 19.7 6.9 44% 76.3 1016.0
16 19:55 Calm 16.09 Thunderstorm CLR 19.3 7.6 47% 76.33 1016.5
16 18:55 NE 2 16.09 Thunderstorm in Vicinity BKN130 17.8 9.1 57% 76.35 1017.0 0.13
16 17:55 Vrbl 2 16.09 Mostly Cloudy BKN130 17.2 10.6 65% 76.4 1017.8 0.03
16 16:55 NW 6 16.09 Light Showers Rain OVC070 13.9 8.6 71% 76.45 1018.9 0.1
16 15:55 E 13 16.09 Light Rain Thunderstorm in Vicinity BKN070 OVC120 17.6 6.3 21.9 16.7 48% 76.45 1018.4
16 14:55 NW 7 16.09 Thunderstorm FEW110 SCT220 20.4 5.9 39% 76.4 1017.3
16 13:55 NW 13 16.09 Thunderstorm FEW120 21.5 5.1 34% 76.43 1017.4
16 12:55 Vrbl 9 16.09 A Few Clouds FEW075 21 6.9 40% 76.45 1017.6
16 11:55 W 6 16.09 Partly Cloudy SCT100 19.2 8.4 50% 76.45 1017.9
16 10:55 Vrbl 7 16.09 Fair CLR 18.4 7.1 48% 76.5 1018.3
16 09:55 SW 6 16.09 Fair CLR 16.9 6.4 17.1 11.9 50% 76.5 1018.5
16 08:55 Calm 16.09 Fair CLR 15 7.5 61% 76.5 1018.6
16 07:55 NW 2 16.09 Fair CLR 13.2 6.7 65% 76.53 1018.8
16 06:55 Calm 16.09 Partly Cloudy SCT085 12.6 5.3 61% 76.48 1018.6
16 05:55 Calm 16.09 Fair CLR 12.3 5.3 63% 76.5 1018.6
16 04:55 Calm 16.09 Fair CLR 13.4 5.1 57% 76.5 1018.6
16 03:55 Calm 16.09 Partly Cloudy SCT095 14.8 5 19.7 14 52% 76.5 1018.6
16 02:55 Calm 16.09 Fair CLR 14.9 5.2 53% 76.5 1018.7
16 01:55 SW 2 16.09 Fair CLR 14.8 5.4 54% 76.5 1018.8
16 00:55 Vrbl 4 16.09 Mostly Cloudy BKN090 16.9 5.4 47% 76.48 1018.4
15 23:55 N 19 16.09 Partly Cloudy SCT095 17.9 5.2 43% 76.48 1018.2
15 22:55 N 15 16.09 A Few Clouds FEW095 18.2 5.8 44% 76.45 1018.0
15 21:55 N 13 16.09 Fair CLR 19.6 5.4 22.5 19.6 40% 76.45 1017.9
Date Time (akdt) Wind (kph) Vis. (km) Weather Sky Cond. Air Dwpt Max. Min. Relative Humidity Wind Chill (°C) Heat Index (°C) altimeter (cm) sea level (mb) 1 hr 3 hr 6 hr
6 hour
Temperature (ºC) Pressure Precipitation (cm)